[[{"header":{"parameterUnit":"m.s-1","parameterCategory":2,"la1":30.2991,"la2":30.254,"lo1":-89.0895,"lo2":-89.0444,"dy":0.0017,"dx":0.0017,"nx":28,"ny":28,"refTime":"2024-02-12T03:00:00:Z","depth":"0","parameterNumber":2,"parameterNumberName":"U-component_of_CURRENTS"},"data":[0,0,0,0,0,0,0,0,0,0,0,0,0,0,0,0,0,0,0,0,0,0,0,0,0,0,0,0,0,0,0,0,0,0,0,0,0,0,0,0,0,0,0,0,0,0,0,0,0,0,0,0,0,0,0,0,0,0,0.3045,0.3046,0,0.3069,0.3069,0.3069,0.3059,0.3058,0.3058,0.3058,0.3038,0.3038,0.3038,0,0,0,0,0,0,0,0,0,0,0,0,0,0.2994,0.2995,0.3045,0.3046,0.3046,0.3069,0.3069,0.3069,0.3059,0.3058,0.3058,0.3058,0.3038,0.3038,0.3038,0,0,0,0,0,0,0,0,0,0,0,0,0,0.3014,0.2995,0.3045,0.3046,0.3046,0.3069,0.3069,0.3069,0.3059,0.3058,0.3058,0.3057,0.3038,0.3038,0.3038,0.3046,0,0,0.3037,0.3036,0,0,0,0,0,0,0,0,0.3013,0.3016,0.3045,0.3046,0.3046,0.3063,0.3044,0.306,0.3059,0.3051,0.3058,0.3057,0.3044,0.3043,0.3046,0.3045,0.3044,0.3037,0.3036,0.3036,0.3036,0,0,0,0,0,0,0,0.3012,0.3015,0.3052,0.3046,0.3047,0.3046,0.3048,0.3047,0.3048,0.3052,0.3052,0.3059,0.3044,0.3046,0.3045,0.3044,0.3037,0.3036,0.3036,0.3036,0.3061,0.3062,0,0,0,0,0,0,0.3015,0.3014,0.3051,0.3053,0.3031,0.3048,0.305,0.3056,0.3048,0.3048,0.3059,0.3058,0.3047,0.3046,0.3045,0.3064,0.3036,0.3036,0.3036,0.306,0.3061,0.3062,0,0,0,0,0,0,0.3013,0.3018,0.305,0.3036,0.304,0.3049,0.3056,0.3057,0.3063,0.3055,0.3053,0.3066,0.3047,0.3045,0.3049,0.3063,0.3036,0.3035,0.3059,0.3061,0.3062,0.3096,0,0,0,0,0,0,0.3012,0.3017,0.3024,0.3036,0.3041,0.3066,0.3057,0.3058,0.3069,0.3068,0.306,0.3057,0.3046,0.3049,0.3049,0.3062,0.3035,0.3058,0.306,0.3061,0.3094,0.3098,0.3102,0,0,0,0,0,0.301,0.302,0.3024,0.3029,0.305,0.3067,0.307,0.3072,0.307,0.3075,0.3071,0.3058,0.3059,0.305,0.3049,0.3062,0.3057,0.3059,0.3061,0.3092,0.3097,0.3102,0,0,0,0,0,0,0.3001,0.3021,0.3025,0.3041,0.3055,0.3066,0.3076,0.3078,0.3081,0.308,0.3067,0.3065,0.3077,0.3066,0.3056,0.3075,0.3057,0.3059,0.3081,0.3086,0.309,0.3119,0.3035,0,0,0,0,0,0.3004,0.3016,0.3035,0.3048,0.3057,0.3068,0.3077,0.3081,0.3086,0.3087,0.3079,0.3077,0.3084,0.3081,0.3083,0.309,0.3107,0.3099,0.3103,0.3107,0.313,0.3162,0.3171,0.3069,0.3069,0.3069,0,0,0.3003,0.3017,0.3024,0.3047,0.3058,0.3078,0.3071,0.3089,0.3107,0.3084,0.3098,0.3093,0.3092,0.3103,0.3106,0.3093,0.3145,0.3109,0.3112,0.3134,0.3165,0.3175,0.3184,0.307,0.307,0.3069,0,0,0.3013,0.3023,0.304,0.3054,0.3079,0.3088,0.3096,0.311,0.3117,0.3127,0.3125,0.3134,0.3125,0.3138,0.3141,0.3172,0.3171,0.3164,0.3202,0.3232,0.3241,0.3249,0.3285,0.3296,0.316,0.316,0.316,0,0.3014,0.3038,0.3047,0.3068,0.3087,0.3095,0.312,0.3132,0.3143,0.3159,0.3133,0.3158,0.3148,0.3189,0.3197,0.3183,0.3201,0.318,0.3239,0.3247,0.3255,0.329,0.3302,0.3162,0.3161,0.3161,0.3161,0,0.304,0.3059,0.3072,0.3103,0.312,0.3144,0.3164,0.3179,0.3181,0.3193,0.3225,0.3216,0.3235,0.3227,0.3219,0.3274,0.327,0.3244,0.3227,0.3267,0.3301,0.3313,0.3164,0.3164,0.3163,0.3163,0,0,0.3046,0.3084,0.3088,0.3105,0.3144,0.3156,0.3195,0.3234,0.3265,0.3264,0.3306,0.3315,0.3317,0.3324,0.3317,0.3336,0.3398,0.3315,0.3315,0.3354,0.3475,0.3526,0.3543,0.3378,0.338,0.3382,0.3478,0,0.3069,0.3108,0.3126,0.3161,0.3186,0.3209,0.3242,0.3274,0.3299,0.3335,0.3349,0.3376,0.3353,0.336,0.3384,0.3401,0.3431,0.3376,0.3429,0.3431,0.3473,0.3559,0.3648,0.3746,0.3489,0.3491,0.3492,0,0.3094,0.3117,0.3156,0.3194,0.3207,0.3227,0.3286,0.3319,0.3381,0.3402,0.3445,0.3451,0.3506,0.3458,0.3532,0.3498,0.3501,0.3501,0.3504,0.3554,0.3505,0.3663,0.3777,0.3841,0.351,0.3509,0.3508,0,0.3092,0.3137,0.3167,0.3181,0.3227,0.3248,0.3276,0.3337,0.3387,0.3452,0.3489,0.3544,0.3582,0.3598,0.3622,0.3575,0.3698,0.3625,0.3679,0.3681,0.3773,0.3781,0.3963,0.3679,0.3679,0.3679,0.3679,0,0.3112,0.3131,0.3163,0.3177,0.3219,0.3245,0.3309,0.3347,0.3426,0.3495,0.3525,0.3602,0.3618,0.3685,0.3674,0.3751,0.3748,0.3728,0.3726,0.3787,0.3794,0.3864,0.3819,0.3682,0.3682,0.3681,0.368,0,0.3099,0.3127,0.3158,0.32,0.322,0.3244,0.333,0.3368,0.3447,0.3542,0.3565,0.3674,0.3776,0.3802,0.3857,0.384,0.3836,0.3894,0.3976,0.3982,0.4062,0.4012,0.381,0.3723,0.3965,0.3967,0.3969,0,0.3094,0.311,0.3163,0.3178,0.3196,0.3249,0.3282,0.3372,0.3429,0.3596,0.3636,0.3776,0.3888,0.4021,0.4054,0.4093,0.3942,0.4148,0.4069,0.4131,0.4074,0.3728,0.3643,0.4201,0.4204,0.4207,0.4209,0,0.3073,0.3092,0.3108,0.3153,0.3183,0.3237,0.3299,0.3357,0.3469,0.3579,0.3739,0.3848,0.404,0.4182,0.4256,0.4262,0.4061,0.4205,0.426,0.429,0.3934,0.3831,0.4064,0.4235,0.4232,0.4231,0.4229,0.4228,0.304,0.3046,0.3069,0.3105,0.3142,0.3191,0.3217,0.332,0.3441,0.3602,0.3765,0.3972,0.4283,0.4438,0.4397,0.452,0.4216,0.4506,0.4446,0.4091,0.3994,0.429,0.4454,0.4453,0.4452,0.4451,0.445,0,0.2986,0.2992,0.3017,0.3048,0.3055,0.3114,0.3189,0.322,0.3339,0.3617,0.3792,0.422,0.447,0.4643,0.4887,0.4839,0.4492,0.4764,0.438,0.4287,0.4639,0.4653,0.4881,0.4881,0.4881,0.4881,0.4881,0.4881,0.295,0.2939,0.2954,0.2946,0.2965,0.2962,0.2987,0.3082,0.3269,0.3587,0.3876,0.4099,0.4558,0.504,0.5219,0.5108,0.4755,0.4565,0.4395,0.4835,0.4806,0.4779,0.4791,0.5044,0.5044,0.3958,0.3951,0.3946]},{"header":{"parameterUnit":"m.s-1","parameterCategory":2,"la1":30.2991,"la2":30.254,"lo1":-89.0895,"lo2":-89.0444,"dy":0.0017,"dx":0.0017,"nx":28,"ny":28,"refTime":"2024-02-12T03:00:00:Z","depth":"0","parameterNumber":3,"parameterNumberName":"V-component_of_CURRENTS"},"data":[0,0,0,0,0,0,0,0,0,0,0,0,0,0,0,0,0,0,0,0,0,0,0,0,0,0,0,0,0,0,0,0,0,0,0,0,0,0,0,0,0,0,0,0,0,0,0,0,0,0,0,0,0,0,0,0,0,0,0.0065,0.0064,0,0.0035,0.0035,0.0034,0.0003,0.0003,0.0002,0.0002,-0.0061,-0.0062,-0.0064,0,0,0,0,0,0,0,0,0,0,0,0,0,0.004,0.0041,0.0065,0.0064,0.0064,0.0035,0.0035,0.0034,0.0003,0.0003,0.0002,0.0002,-0.0061,-0.0062,-0.0064,0,0,0,0,0,0,0,0,0,0,0,0,0,0.0035,0.0042,0.0065,0.0045,0.0043,0.0035,0.0035,0.0034,0.0003,0.0003,0.0002,0.0001,-0.006,-0.0062,-0.0064,-0.0063,0,0,-0.007,-0.0071,0,0,0,0,0,0,0,0,0.0035,0.0036,0.0048,0.0046,0.0044,0.0022,0.0003,0.0,0.0004,0.0018,0.0002,0.0001,-0.0036,-0.004,-0.0044,-0.0066,-0.0068,-0.007,-0.0071,-0.0072,-0.0073,0,0,0,0,0,0,0,0.0036,0.0037,0.0053,0.0048,0.0045,0.0019,0.0018,0.0002,-0.0005,0.0017,0.0015,0.0012,-0.0037,-0.0042,-0.0045,-0.0069,-0.007,-0.0072,-0.0073,-0.0074,-0.0102,-0.0102,0,0,0,0,0,0,0.0043,0.0038,0.0054,0.0052,0.0038,0.002,0.0019,0.003,-0.0005,-0.001,0.0012,0.001,-0.0038,-0.0043,-0.0048,-0.0039,-0.0072,-0.0074,-0.0075,-0.0103,-0.0102,-0.0102,0,0,0,0,0,0,0.0043,0.0046,0.0055,0.0043,0.0042,0.0022,0.0034,0.003,0.0027,-0.0008,-0.0014,0.0015,-0.0039,-0.0045,-0.0056,-0.0042,-0.0075,-0.0076,-0.0103,-0.0102,-0.0102,-0.0028,0,0,0,0,0,0,0.0043,0.0046,0.0054,0.0044,0.0043,0.0062,0.0034,0.0029,0.0026,0.0024,-0.0008,-0.0015,-0.004,-0.0052,-0.0057,-0.0046,-0.0078,-0.0104,-0.0103,-0.0102,-0.0031,-0.0025,-0.002,0,0,0,0,0,0.0042,0.0064,0.0055,0.0056,0.0056,0.0063,0.0061,0.0042,0.0027,0.0036,0.0011,-0.0014,-0.0052,-0.0053,-0.0059,-0.0048,-0.0104,-0.0103,-0.0102,-0.0034,-0.0026,-0.002,0,0,0,0,0,0,0.0058,0.0062,0.0052,0.0073,0.0071,0.0058,0.0061,0.0049,0.0037,0.003,-0.0005,-0.0012,-0.0019,-0.0043,-0.0044,-0.0056,-0.0083,-0.0084,-0.0029,-0.0023,-0.0017,0.0003,-0.0079,0,0,0,0,0,0.0065,0.0081,0.0077,0.0092,0.0094,0.0077,0.0076,0.0066,0.0054,0.0048,0.0025,-0.0002,-0.002,-0.0028,-0.005,-0.0051,-0.0085,-0.005,-0.0044,-0.0039,-0.0028,-0.0076,-0.0073,-0.0099,-0.0099,-0.0099,0,0,0.0073,0.0078,0.0085,0.0096,0.009,0.0106,0.0075,0.0081,0.0094,0.0042,0.0049,0.0017,-0.0017,-0.002,-0.0025,-0.0037,-0.005,-0.0038,-0.0033,-0.0024,-0.0075,-0.0072,-0.007,-0.0098,-0.0098,-0.0099,0,0,0.0104,0.0104,0.0128,0.0133,0.0132,0.0126,0.0132,0.0124,0.012,0.0121,0.0085,0.0064,0.0039,0.0019,0.0005,0.0028,-0.002,0.0018,0.0066,0.002,0.0021,0.0023,-0.0014,-0.0016,0.0023,0.0023,0.0023,0,0.0111,0.0147,0.0135,0.0159,0.017,0.0142,0.0172,0.0166,0.0155,0.0159,0.0131,0.0092,0.0059,0.0058,0.0063,0.0042,0.0009,0.0046,0.0028,0.0028,0.0028,-0.001,-0.0014,0.0027,0.0027,0.0026,0.0026,0,0.0163,0.0188,0.0203,0.0227,0.0236,0.0258,0.0251,0.0257,0.0241,0.023,0.022,0.017,0.0149,0.013,0.0104,0.0095,0.007,0.0039,0.0014,0.0035,-0.0006,-0.0012,0.0032,0.0031,0.003,0.0029,0,0,0.019,0.0233,0.0238,0.0267,0.0277,0.0296,0.0317,0.0335,0.036,0.032,0.034,0.029,0.0254,0.0235,0.0192,0.0151,0.0117,0.0102,0.0098,0.0073,0.002,0.0006,-0.0002,0.008,0.0079,0.0079,-0.0007,0,0.0235,0.0305,0.0309,0.037,0.0408,0.0396,0.0426,0.0432,0.0425,0.0434,0.037,0.0364,0.0297,0.0287,0.0235,0.0151,0.0106,0.0144,-0.0002,-0.0006,-0.0017,-0.0008,0.0048,-0.0023,-0.0013,-0.0014,-0.0014,0,0.0288,0.0332,0.0406,0.0462,0.0477,0.0503,0.0551,0.0576,0.0573,0.0565,0.0535,0.0481,0.0426,0.0357,0.0219,0.0245,0.0143,0.0066,0.006,0.0019,-0.003,-0.0045,-0.0034,-0.0217,-0.0023,-0.0022,-0.0022,0,0.0333,0.0399,0.0466,0.0484,0.0539,0.0568,0.0597,0.0616,0.0661,0.065,0.0663,0.0578,0.0549,0.0403,0.0241,0.0226,0.0082,0.0036,-0.0074,-0.0076,-0.007,-0.007,-0.0246,-0.0069,-0.0068,-0.0068,-0.0068,0,0.0389,0.044,0.0493,0.0532,0.062,0.0628,0.0716,0.0732,0.0766,0.084,0.0735,0.0765,0.0557,0.045,0.0278,0.0097,0.0104,-0.0059,-0.0098,-0.0042,-0.0039,-0.0232,-0.036,-0.0071,-0.0071,-0.007,-0.0069,0,0.0431,0.0464,0.0547,0.0616,0.0648,0.0711,0.0808,0.0872,0.0884,0.0974,0.0973,0.0905,0.0776,0.0554,0.0334,0.0165,-0.0141,-0.0093,-0.0007,-0.0035,-0.0313,-0.0437,-0.0651,-0.0813,-0.023,-0.0231,-0.0232,0,0.0459,0.0508,0.0614,0.0678,0.0714,0.081,0.0887,0.0936,0.1017,0.1081,0.1134,0.1035,0.1025,0.0682,0.0357,0.005,-0.0162,-0.012,-0.0148,-0.0317,-0.0486,-0.0556,-0.0684,-0.0112,-0.0112,-0.0112,-0.0111,0,0.0516,0.0552,0.0626,0.0762,0.0853,0.0972,0.1084,0.1173,0.1253,0.1338,0.1452,0.1451,0.1132,0.0888,0.0434,0.0186,-0.0267,-0.0125,-0.0326,-0.0427,-0.0491,-0.0666,-0.0069,-0.0109,-0.0109,-0.0109,-0.0109,-0.011,0.0556,0.0624,0.0729,0.0861,0.0974,0.1135,0.1269,0.1404,0.158,0.1786,0.1747,0.1882,0.1464,0.087,0.0422,-0.0232,-0.028,-0.0376,-0.0517,-0.0575,-0.0723,-0.0116,-0.0188,-0.0189,-0.0189,-0.019,-0.019,0,0.0615,0.0702,0.0824,0.0996,0.1143,0.1191,0.1408,0.1581,0.1835,0.2085,0.2237,0.2263,0.1638,0.0987,0.0068,-0.047,-0.0718,-0.0755,-0.0846,-0.097,-0.0431,-0.0416,-0.0509,-0.0509,-0.0509,-0.0509,-0.0508,-0.0508,0.065,0.0783,0.0859,0.1116,0.1243,0.1486,0.1635,0.1902,0.2161,0.2598,0.2856,0.2978,0.2689,0.0867,-0.0386,-0.0791,-0.1242,-0.1276,-0.155,-0.1156,-0.113,-0.1106,-0.112,-0.136,-0.1361,-0.1999,-0.2005,-0.201]}],[{"header":{"parameterUnit":"m.s-1","parameterCategory":2,"la1":30.2991,"la2":30.254,"lo1":-89.0895,"lo2":-89.0444,"dy":0.0017,"dx":0.0017,"nx":28,"ny":28,"refTime":"2024-02-12T03:00:00:Z","depth":"2","parameterNumber":2,"parameterNumberName":"U-component_of_CURRENTS"},"data":[0,0,0,0,0,0,0,0,0,0,0,0,0,0,0,0,0,0,0,0,0,0,0,0,0,0,0,0,0,0,0,0,0,0,0,0,0,0,0,0,0,0,0,0,0,0,0,0,0,0,0,0,0,0,0,0,0,0,0.2992,0.2993,0,0.3015,0.3015,0.3015,0.3006,0.3006,0.3005,0.3005,0.2986,0.2986,0.2986,0,0,0,0,0,0,0,0,0,0,0,0,0,0.2942,0.2943,0.2992,0.2993,0.2993,0.3015,0.3015,0.3015,0.3006,0.3006,0.3005,0.3005,0.2986,0.2986,0.2986,0,0,0,0,0,0,0,0,0,0,0,0,0,0.2962,0.2943,0.2992,0.2993,0.2994,0.3015,0.3015,0.3015,0.3006,0.3006,0.3005,0.3005,0.2987,0.2986,0.2986,0.2992,0,0,0.2985,0.2985,0,0,0,0,0,0,0,0,0.2961,0.2963,0.2993,0.2993,0.2994,0.301,0.2991,0.3006,0.3006,0.2999,0.3005,0.3005,0.2992,0.2991,0.2994,0.2991,0.2991,0.2985,0.2985,0.2984,0.2984,0,0,0,0,0,0,0,0.2959,0.2962,0.2999,0.2993,0.2994,0.2993,0.2995,0.2993,0.2995,0.2999,0.2999,0.3006,0.2992,0.2994,0.2993,0.299,0.2985,0.2984,0.2984,0.2984,0.3008,0.3009,0,0,0,0,0,0,0.2962,0.2961,0.2998,0.3,0.2979,0.2995,0.2997,0.3003,0.2996,0.2995,0.3007,0.3006,0.2995,0.2993,0.2992,0.3012,0.2984,0.2984,0.2984,0.3007,0.3008,0.3009,0,0,0,0,0,0,0.2961,0.2965,0.2997,0.2983,0.2987,0.2996,0.3003,0.3004,0.3011,0.3002,0.3,0.3014,0.2994,0.2993,0.2997,0.3011,0.2984,0.2984,0.3006,0.3008,0.3009,0.3043,0,0,0,0,0,0,0.296,0.2965,0.2972,0.2983,0.2988,0.3013,0.3004,0.3004,0.3016,0.3016,0.3008,0.3005,0.2994,0.2997,0.2996,0.301,0.2983,0.3005,0.3007,0.3008,0.3041,0.3046,0.305,0,0,0,0,0,0.2958,0.2968,0.2972,0.2977,0.2997,0.3014,0.3016,0.3019,0.3017,0.3023,0.3019,0.3006,0.3007,0.2998,0.2996,0.301,0.3004,0.3006,0.3008,0.3039,0.3045,0.305,0,0,0,0,0,0,0.2949,0.2969,0.2973,0.2989,0.3003,0.3013,0.3023,0.3025,0.3028,0.3028,0.3015,0.3012,0.3025,0.3013,0.3004,0.3023,0.3004,0.3006,0.3029,0.3034,0.3038,0.3066,0.2983,0,0,0,0,0,0.2952,0.2965,0.2983,0.2996,0.3005,0.3016,0.3024,0.3028,0.3033,0.3034,0.3027,0.3025,0.3032,0.3029,0.3031,0.3037,0.3053,0.3046,0.305,0.3054,0.3077,0.3108,0.3118,0.3016,0.3015,0.3015,0,0,0.2952,0.2966,0.2973,0.2995,0.3007,0.3026,0.3019,0.3037,0.3054,0.3032,0.3045,0.3041,0.3039,0.305,0.3053,0.304,0.3092,0.3056,0.3059,0.3081,0.3111,0.3121,0.313,0.3017,0.3017,0.3016,0,0,0.2963,0.2973,0.299,0.3004,0.3028,0.3036,0.3044,0.3058,0.3065,0.3075,0.3073,0.3082,0.3073,0.3085,0.3088,0.3118,0.3117,0.3111,0.3149,0.3178,0.3187,0.3195,0.3231,0.3242,0.3107,0.3107,0.3107,0,0.2965,0.2989,0.2996,0.3018,0.3036,0.3044,0.3068,0.3079,0.309,0.3106,0.3081,0.3105,0.3096,0.3135,0.3143,0.313,0.3147,0.3127,0.3185,0.3193,0.3201,0.3236,0.3247,0.3108,0.3108,0.3108,0.3108,0,0.2991,0.301,0.3022,0.3053,0.3069,0.3092,0.3112,0.3126,0.3128,0.314,0.3172,0.3163,0.3181,0.3174,0.3165,0.322,0.3216,0.319,0.3173,0.3213,0.3247,0.3259,0.3111,0.3111,0.311,0.3109,0,0,0.2999,0.3035,0.3039,0.3056,0.3093,0.3105,0.3142,0.318,0.321,0.321,0.3251,0.326,0.3262,0.3269,0.3262,0.3282,0.3343,0.3261,0.3261,0.33,0.342,0.3468,0.3485,0.3324,0.3326,0.3327,0.3422,0,0.3023,0.3061,0.3077,0.3112,0.3136,0.3157,0.3188,0.322,0.3244,0.3279,0.3293,0.332,0.3298,0.3305,0.333,0.3346,0.3376,0.3321,0.3373,0.3376,0.3416,0.3501,0.3144,0.3204,0.3433,0.3435,0.3437,0,0.3049,0.3071,0.311,0.3145,0.3158,0.3177,0.3234,0.3265,0.3324,0.3345,0.3388,0.3395,0.3449,0.3403,0.3476,0.3442,0.3446,0.3446,0.3448,0.3495,0.3447,0.32,0.3216,0.3456,0.3455,0.3453,0.3452,0,0.3049,0.3093,0.3122,0.3136,0.3178,0.32,0.3226,0.3284,0.3332,0.3396,0.3433,0.3487,0.3525,0.3542,0.3566,0.3519,0.3641,0.3568,0.3619,0.3622,0.3334,0.331,0.3622,0.3622,0.3621,0.3621,0.3621,0,0.3071,0.3089,0.312,0.3134,0.3176,0.3199,0.3261,0.3297,0.3373,0.344,0.3469,0.3544,0.3561,0.3627,0.3616,0.3692,0.369,0.3668,0.3666,0.3339,0.3315,0.3537,0.3526,0.3625,0.3624,0.3623,0.3623,0,0.3061,0.3088,0.3118,0.3158,0.3178,0.3202,0.3285,0.332,0.3397,0.3489,0.3512,0.3617,0.3718,0.3744,0.3797,0.378,0.3816,0.3832,0.3469,0.3426,0.3756,0.3745,0.3894,0.3897,0.3899,0.3901,0.3903,0,0.3057,0.3073,0.3126,0.314,0.3157,0.3209,0.3241,0.3328,0.3382,0.3542,0.3582,0.3718,0.381,0.394,0.3862,0.3871,0.3939,0.3618,0.3479,0.381,0.3792,0.3777,0.3764,0.3087,0.3082,0.3078,0.3075,0,0.3038,0.3057,0.3072,0.3118,0.3147,0.32,0.326,0.3316,0.3423,0.35,0.3652,0.3742,0.384,0.3719,0.3749,0.3693,0.3588,0.3545,0.3959,0.3117,0.3069,0.3045,0.3054,0.3037,0.3041,0.3044,0.3046,0.3047,0.3006,0.3012,0.3036,0.3071,0.3108,0.3156,0.3181,0.3156,0.3228,0.3211,0.3521,0.3478,0.3551,0.3392,0.3318,0.322,0.3468,0.3313,0.3315,0.3324,0.3258,0.3221,0.3205,0.3209,0.3213,0.3217,0.322,0,0.2896,0.296,0.2985,0.3015,0.2946,0.308,0.3154,0.3008,0.2923,0.2965,0.3001,0.2822,0.2801,0.2869,0.265,0.2711,0.2534,0.2638,0.2368,0.2412,0.2449,0.2326,0.2032,0.2028,0.2024,0.2021,0,0,0.2846,0.2805,0.2819,0.2767,0.284,0.2702,0.2723,0.2539,0.2452,0.2261,0.2236,0.2461,0.2733,0.2287,0.2292,0.2134,0.2213,0.2025,0.2981,0.2701,0.2731,0.2861,0.2729,0,0,0,0,0]},{"header":{"parameterUnit":"m.s-1","parameterCategory":2,"la1":30.2991,"la2":30.254,"lo1":-89.0895,"lo2":-89.0444,"dy":0.0017,"dx":0.0017,"nx":28,"ny":28,"refTime":"2024-02-12T03:00:00:Z","depth":"2","parameterNumber":3,"parameterNumberName":"V-component_of_CURRENTS"},"data":[0,0,0,0,0,0,0,0,0,0,0,0,0,0,0,0,0,0,0,0,0,0,0,0,0,0,0,0,0,0,0,0,0,0,0,0,0,0,0,0,0,0,0,0,0,0,0,0,0,0,0,0,0,0,0,0,0,0,0.0087,0.0086,0,0.0057,0.0057,0.0057,0.0025,0.0025,0.0024,0.0024,-0.0039,-0.004,-0.0041,0,0,0,0,0,0,0,0,0,0,0,0,0,0.0062,0.0063,0.0087,0.0086,0.0086,0.0058,0.0057,0.0057,0.0025,0.0025,0.0024,0.0024,-0.0039,-0.004,-0.0042,0,0,0,0,0,0,0,0,0,0,0,0,0,0.0057,0.0064,0.0087,0.0067,0.0065,0.0058,0.0057,0.0057,0.0026,0.0025,0.0024,0.0024,-0.0038,-0.004,-0.0042,-0.004,0,0,-0.0048,-0.0048,0,0,0,0,0,0,0,0,0.0058,0.0058,0.007,0.0068,0.0066,0.0044,0.0025,0.0023,0.0026,0.004,0.0024,0.0023,-0.0014,-0.0018,-0.0021,-0.0043,-0.0046,-0.0048,-0.0049,-0.005,-0.005,0,0,0,0,0,0,0,0.0058,0.0059,0.0075,0.007,0.0067,0.0041,0.004,0.0025,0.0017,0.0039,0.0037,0.0034,-0.0015,-0.0019,-0.0023,-0.0047,-0.0048,-0.0049,-0.0051,-0.0051,-0.0079,-0.0079,0,0,0,0,0,0,0.0066,0.006,0.0076,0.0074,0.006,0.0043,0.0041,0.0052,0.0018,0.0012,0.0034,0.0032,-0.0016,-0.0021,-0.0025,-0.0017,-0.005,-0.0051,-0.0053,-0.008,-0.0079,-0.0079,0,0,0,0,0,0,0.0065,0.0068,0.0077,0.0065,0.0065,0.0044,0.0056,0.0052,0.0049,0.0014,0.0008,0.0036,-0.0016,-0.0023,-0.0033,-0.002,-0.0052,-0.0054,-0.008,-0.008,-0.0079,-0.0006,0,0,0,0,0,0,0.0065,0.0068,0.0076,0.0066,0.0066,0.0084,0.0056,0.0052,0.0048,0.0046,0.0014,0.0007,-0.0017,-0.003,-0.0035,-0.0023,-0.0056,-0.0081,-0.008,-0.0079,-0.0009,-0.0003,0.0003,0,0,0,0,0,0.0065,0.0086,0.0077,0.0078,0.0078,0.0085,0.0083,0.0064,0.0049,0.0058,0.0033,0.0008,-0.003,-0.0031,-0.0037,-0.0025,-0.0081,-0.008,-0.0079,-0.0011,-0.0004,0.0002,0,0,0,0,0,0,0.008,0.0084,0.0074,0.0095,0.0093,0.008,0.0083,0.0071,0.0059,0.0052,0.0017,0.001,0.0003,-0.0021,-0.0022,-0.0033,-0.0061,-0.0061,-0.0007,-0.0,0.0005,0.0025,-0.0057,0,0,0,0,0,0.0087,0.0103,0.0099,0.0114,0.0115,0.0099,0.0098,0.0088,0.0076,0.0069,0.0047,0.002,0.0003,-0.0006,-0.0027,-0.0028,-0.0062,-0.0027,-0.0021,-0.0016,-0.0005,-0.0053,-0.0051,-0.0076,-0.0076,-0.0076,0,0,0.0095,0.0099,0.0107,0.0118,0.0111,0.0128,0.0097,0.0103,0.0116,0.0064,0.0071,0.0039,0.0006,0.0003,-0.0003,-0.0015,-0.0027,-0.0015,-0.0011,-0.0002,-0.0052,-0.0049,-0.0047,-0.0075,-0.0076,-0.0076,0,0,0.0126,0.0126,0.015,0.0154,0.0154,0.0148,0.0154,0.0146,0.0141,0.0142,0.0107,0.0086,0.0061,0.0041,0.0027,0.0051,0.0002,0.0041,0.0089,0.0042,0.0044,0.0045,0.0009,0.0006,0.0046,0.0046,0.0046,0,0.0132,0.0168,0.0157,0.0181,0.0192,0.0163,0.0194,0.0188,0.0177,0.018,0.0153,0.0114,0.0081,0.008,0.0086,0.0065,0.0032,0.0069,0.005,0.005,0.005,0.0012,0.0009,0.0049,0.0049,0.0049,0.0048,0,0.0184,0.0209,0.0225,0.0249,0.0257,0.0279,0.0273,0.0279,0.0262,0.0251,0.0242,0.0192,0.0171,0.0152,0.0126,0.0117,0.0092,0.0061,0.0036,0.0058,0.0016,0.0011,0.0055,0.0053,0.0052,0.0051,0,0,0.0211,0.0254,0.0259,0.0288,0.0299,0.0317,0.0339,0.0357,0.0382,0.0341,0.0362,0.0312,0.0276,0.0257,0.0214,0.0173,0.0139,0.0125,0.012,0.0095,0.0042,0.0027,0.0019,0.0102,0.0101,0.0101,0.0015,0,0.0256,0.0326,0.033,0.0391,0.0429,0.0417,0.0447,0.0453,0.0446,0.0456,0.0392,0.0386,0.0319,0.0309,0.0257,0.0173,0.0128,0.0166,0.002,0.0016,0.0005,0.0014,0.0042,-0.0032,0.0009,0.0008,0.0008,0,0.0308,0.0352,0.0426,0.0483,0.0498,0.0524,0.0572,0.0597,0.0595,0.0587,0.0556,0.0502,0.0447,0.0379,0.024,0.0267,0.0165,0.0088,0.0082,0.0041,-0.0009,-0.0049,-0.0044,-0.0002,-0.0001,-0.0,0.0,0,0.0352,0.0419,0.0485,0.0504,0.0559,0.0589,0.0618,0.0637,0.0682,0.0671,0.0684,0.0598,0.0569,0.0424,0.0263,0.0248,0.0104,0.0058,-0.0052,-0.0055,-0.0072,-0.0074,-0.0046,-0.0046,-0.0046,-0.0046,-0.0046,0,0.0408,0.0459,0.0512,0.0551,0.0639,0.0648,0.0735,0.0752,0.0786,0.086,0.0755,0.0785,0.0578,0.047,0.0299,0.0118,0.0125,-0.0038,-0.0077,-0.0045,-0.0044,-0.0052,-0.0052,-0.0049,-0.0048,-0.0048,-0.0047,0,0.0449,0.0482,0.0566,0.0635,0.0667,0.073,0.0828,0.0892,0.0903,0.0993,0.0992,0.0923,0.0794,0.0573,0.0353,0.0185,-0.0003,-0.0073,-0.0015,-0.0046,-0.0142,-0.0136,-0.0208,-0.0209,-0.021,-0.0211,-0.0212,0,0.0476,0.0526,0.0632,0.0696,0.0732,0.0828,0.0905,0.0954,0.1036,0.1099,0.1151,0.1051,0.1036,0.0693,0.0368,0.006,0.0011,-0.013,-0.016,-0.0127,-0.0158,-0.0151,-0.0145,-0.0157,-0.0158,-0.0158,-0.0158,0,0.0533,0.0569,0.0644,0.078,0.087,0.099,0.1102,0.1191,0.1271,0.1349,0.146,0.1453,0.1133,0.0839,0.0382,0.017,-0.0084,-0.0143,-0.0128,-0.0114,-0.0084,-0.0113,-0.0108,-0.016,-0.0159,-0.0159,-0.0159,-0.0159,0.0572,0.0641,0.0746,0.0877,0.0991,0.1152,0.1286,0.1402,0.1569,0.1712,0.1682,0.1663,0.1309,0.0741,0.035,-0.0086,-0.0061,-0.022,-0.0217,-0.0215,-0.0187,-0.016,-0.0244,-0.0244,-0.0244,-0.0245,-0.0245,0,0.0645,0.0718,0.0841,0.1012,0.117,0.1207,0.1424,0.1575,0.1796,0.1875,0.196,0.1631,0.1245,0.081,0.0174,-0.0184,-0.0215,-0.0309,-0.0271,-0.0266,-0.0262,-0.0236,-0.0307,-0.0309,-0.031,-0.0311,0,0,0.0684,0.0823,0.0899,0.1156,0.1272,0.1517,0.1666,0.1859,0.1982,0.2107,0.2063,0.1928,0.1401,0.0924,0.0426,0.0058,-0.0013,-0.0012,0.0081,0.0194,0.0202,-0.0167,-0.0116,0,0,0,0,0]}],[{"header":{"parameterUnit":"m.s-1","parameterCategory":2,"la1":30.2991,"la2":30.254,"lo1":-89.0895,"lo2":-89.0444,"dy":0.0017,"dx":0.0017,"nx":28,"ny":28,"refTime":"2024-02-12T03:00:00:Z","depth":"4","parameterNumber":2,"parameterNumberName":"U-component_of_CURRENTS"},"data":[0,0,0,0,0,0,0,0,0,0,0,0,0,0,0,0,0,0,0,0,0,0,0,0,0,0,0,0,0,0,0,0,0,0,0,0,0,0,0,0,0,0,0,0,0,0,0,0,0,0,0,0,0,0,0,0,0,0,0.1336,0.1337,0,0.1419,0.1419,0.142,0.1482,0.1483,0.1484,0.1484,0.1581,0.1582,0.1584,0,0,0,0,0,0,0,0,0,0,0,0,0,0.1243,0.1244,0.1336,0.1337,0.1338,0.1418,0.1419,0.142,0.1482,0.1483,0.1484,0.1485,0.158,0.1582,0.1585,0,0,0,0,0,0,0,0,0,0,0,0,0,0.1298,0.1244,0.1336,0.138,0.1385,0.1418,0.1419,0.1421,0.1482,0.1483,0.1484,0.1485,0.1579,0.1582,0.1585,0.1581,0,0,0.1594,0.1595,0,0,0,0,0,0,0,0,0.1295,0.1301,0.1372,0.1377,0.1382,0.1443,0.1422,0.1476,0.1482,0.1443,0.1484,0.1486,0.1536,0.1542,0.1553,0.1586,0.159,0.1594,0.1596,0.1597,0.1598,0,0,0,0,0,0,0,0.1291,0.1298,0.1367,0.1373,0.138,0.14,0.1408,0.1432,0.1482,0.1447,0.1452,0.1463,0.1539,0.155,0.1556,0.1591,0.1594,0.1596,0.1598,0.1599,0.1739,0.1741,0,0,0,0,0,0,0.1282,0.1294,0.1364,0.137,0.1342,0.14,0.141,0.1421,0.1481,0.1492,0.1462,0.1466,0.1545,0.1553,0.156,0.1661,0.1597,0.1599,0.1601,0.1737,0.174,0.1742,0,0,0,0,0,0,0.128,0.1288,0.1361,0.1335,0.1346,0.1401,0.1412,0.1422,0.1468,0.1493,0.1504,0.1502,0.1546,0.1556,0.1619,0.1661,0.1601,0.1603,0.1735,0.1738,0.1741,0.1798,0,0,0,0,0,0,0.1277,0.1286,0.1307,0.1335,0.1347,0.1403,0.1412,0.1423,0.1472,0.1478,0.153,0.1538,0.1548,0.1615,0.1622,0.1664,0.1606,0.1732,0.1736,0.174,0.1793,0.1802,0.181,0,0,0,0,0,0.1273,0.1291,0.1307,0.1317,0.1368,0.1404,0.1413,0.1453,0.1473,0.1498,0.1541,0.1539,0.1644,0.1619,0.1627,0.167,0.173,0.1735,0.1739,0.1789,0.18,0.181,0,0,0,0,0,0,0.1264,0.13,0.1318,0.1348,0.1384,0.1416,0.1446,0.1471,0.1523,0.1542,0.1563,0.1574,0.1647,0.165,0.1622,0.1723,0.1687,0.1694,0.1723,0.1733,0.1741,0.176,0.1608,0,0,0,0,0,0.1269,0.1295,0.133,0.1359,0.1378,0.1418,0.1444,0.1473,0.1515,0.154,0.1579,0.1622,0.1665,0.1693,0.1728,0.1779,0.1788,0.1813,0.1821,0.1828,0.185,0.1892,0.1906,0.1756,0.1756,0.1756,0,0,0.1274,0.1299,0.1315,0.136,0.1391,0.1428,0.1437,0.1487,0.1532,0.1541,0.1624,0.1655,0.1686,0.175,0.1782,0.1763,0.1876,0.1834,0.184,0.1858,0.1898,0.1913,0.1926,0.176,0.1759,0.1759,0,0,0.1286,0.132,0.1343,0.1376,0.1431,0.1457,0.1478,0.1531,0.1574,0.1643,0.1669,0.173,0.1788,0.1826,0.1848,0.1923,0.192,0.1934,0.1993,0.2033,0.2045,0.2057,0.2084,0.2098,0.1937,0.1937,0.1937,0,0.1295,0.1327,0.1357,0.139,0.1427,0.1473,0.1512,0.1558,0.1632,0.1678,0.1681,0.1801,0.1826,0.1911,0.1944,0.1943,0.1962,0.1948,0.2043,0.2055,0.2065,0.2091,0.2105,0.194,0.194,0.194,0.1939,0,0.1316,0.1357,0.1377,0.1434,0.1476,0.152,0.1581,0.1642,0.1697,0.1746,0.1852,0.1892,0.1966,0.1981,0.1991,0.2085,0.2073,0.2047,0.2014,0.2083,0.2106,0.212,0.1945,0.1944,0.1943,0.1942,0,0,0.1296,0.1375,0.1387,0.1422,0.1507,0.1538,0.1627,0.1715,0.1784,0.1861,0.1953,0.2035,0.2072,0.2101,0.2122,0.2162,0.2249,0.2148,0.2149,0.2171,0.2342,0.2202,0.2203,0.2241,0.2244,0.2246,0.2326,0,0.1309,0.1367,0.1414,0.1486,0.1522,0.16,0.1679,0.177,0.185,0.195,0.2021,0.2114,0.2112,0.2162,0.2207,0.2249,0.2289,0.223,0.2277,0.2279,0.2141,0.2215,0.2255,0.2336,0.2339,0.2341,0.2343,0,0.1312,0.1354,0.1422,0.1518,0.1544,0.1603,0.1736,0.1811,0.1957,0.2029,0.2135,0.2194,0.2308,0.2274,0.2386,0.2353,0.2365,0.2375,0.2377,0.224,0.2164,0.2255,0.2366,0.2365,0.2363,0.2361,0.236,0,0.1267,0.1358,0.1414,0.1447,0.1564,0.1627,0.1702,0.1843,0.1931,0.2091,0.2176,0.2295,0.2382,0.2423,0.2476,0.2443,0.2571,0.2514,0.2396,0.2385,0.246,0.2447,0.2579,0.2579,0.2579,0.2579,0.2579,0,0.1251,0.1297,0.1401,0.143,0.1515,0.1609,0.1723,0.1821,0.1982,0.2085,0.2218,0.2315,0.2428,0.2514,0.252,0.2514,0.261,0.2429,0.2405,0.2481,0.247,0.2469,0.2455,0.2582,0.2581,0.2581,0.258,0,0.1194,0.1263,0.1329,0.1452,0.1495,0.1559,0.1728,0.1805,0.1974,0.2113,0.2177,0.2375,0.2484,0.2566,0.2647,0.2564,0.2567,0.2533,0.2636,0.2613,0.2339,0.2327,0.2397,0.2393,0.2389,0.2386,0.2384,0,0.1169,0.1197,0.1322,0.1363,0.1425,0.1534,0.1609,0.1785,0.1867,0.2124,0.2175,0.2369,0.247,0.2489,0.2572,0.258,0.254,0.2511,0.2401,0.2355,0.2325,0.2319,0.2312,0.2379,0.2378,0.2377,0.2376,0,0.1117,0.1173,0.1224,0.1306,0.1383,0.1462,0.1578,0.1633,0.1831,0.2004,0.2131,0.2211,0.2338,0.2405,0.2446,0.2436,0.2511,0.2474,0.2479,0.2375,0.2333,0.2306,0.2303,0.2364,0.2366,0.2367,0.2367,0,0.108,0.1098,0.1167,0.1231,0.1314,0.1356,0.1437,0.1537,0.1647,0.1913,0.1951,0.2152,0.232,0.2333,0.2367,0.2361,0.2301,0.2185,0.2204,0.2218,0.2121,0.2039,0.1978,0,0,0,0,0,0.1031,0.1035,0.1084,0.1138,0.1213,0.1262,0.1397,0.1484,0.167,0.1706,0.1826,0.1933,0.2028,0.2137,0.2092,0.2268,0.2296,0.2202,0.2167,0.2297,0.2311,0.2212,0,0,0,0,0,0,0.0994,0.1031,0.1045,0.1042,0.1059,0.113,0.1208,0.1337,0.137,0.1572,0.1644,0.1792,0.1921,0.2033,0.205,0.2076,0.2005,0.2321,0.2315,0.2289,0.2302,0.2313,0.2216,0,0,0,0,0]},{"header":{"parameterUnit":"m.s-1","parameterCategory":2,"la1":30.2991,"la2":30.254,"lo1":-89.0895,"lo2":-89.0444,"dy":0.0017,"dx":0.0017,"nx":28,"ny":28,"refTime":"2024-02-12T03:00:00:Z","depth":"4","parameterNumber":3,"parameterNumberName":"V-component_of_CURRENTS"},"data":[0,0,0,0,0,0,0,0,0,0,0,0,0,0,0,0,0,0,0,0,0,0,0,0,0,0,0,0,0,0,0,0,0,0,0,0,0,0,0,0,0,0,0,0,0,0,0,0,0,0,0,0,0,0,0,0,0,0,0.0333,0.0332,0,0.0304,0.0304,0.0304,0.0285,0.0285,0.0285,0.0285,0.0233,0.0232,0.0231,0,0,0,0,0,0,0,0,0,0,0,0,0,0.0329,0.0329,0.0333,0.0332,0.0332,0.0304,0.0304,0.0303,0.0286,0.0285,0.0285,0.0285,0.0234,0.0232,0.0231,0,0,0,0,0,0,0,0,0,0,0,0,0,0.0319,0.0329,0.0333,0.0319,0.0317,0.0304,0.0304,0.0303,0.0286,0.0285,0.0285,0.0285,0.0234,0.0233,0.0231,0.0225,0,0,0.0225,0.0224,0,0,0,0,0,0,0,0,0.032,0.0319,0.0321,0.032,0.0318,0.0297,0.0283,0.0276,0.0286,0.0298,0.0285,0.0285,0.0252,0.0249,0.0246,0.0222,0.022,0.0225,0.0224,0.0223,0.0223,0,0,0,0,0,0,0,0.0321,0.032,0.0322,0.0321,0.0319,0.0299,0.0298,0.0282,0.0277,0.0297,0.0296,0.0292,0.0251,0.0248,0.0244,0.0219,0.0225,0.0223,0.0222,0.0222,0.0181,0.0181,0,0,0,0,0,0,0.0325,0.0321,0.0323,0.0321,0.0318,0.03,0.0299,0.0305,0.0278,0.0274,0.0292,0.0291,0.0251,0.0246,0.0242,0.0242,0.0223,0.0221,0.022,0.0181,0.0181,0.0181,0,0,0,0,0,0,0.0326,0.0326,0.0324,0.0319,0.0317,0.03,0.0308,0.0304,0.0304,0.0274,0.0269,0.0294,0.025,0.0245,0.0233,0.0239,0.0221,0.0219,0.0181,0.0181,0.0181,0.0235,0,0,0,0,0,0,0.0326,0.0327,0.0335,0.032,0.0318,0.0326,0.0308,0.0304,0.0301,0.0299,0.0274,0.0269,0.025,0.0236,0.0232,0.0236,0.0218,0.0181,0.0181,0.0181,0.0234,0.0237,0.024,0,0,0,0,0,0.0326,0.0342,0.0335,0.0335,0.0329,0.0326,0.0324,0.031,0.0301,0.0307,0.0288,0.027,0.0233,0.0235,0.023,0.0234,0.0181,0.0181,0.0181,0.0232,0.0236,0.024,0,0,0,0,0,0,0.0344,0.0341,0.0334,0.0347,0.034,0.0323,0.0327,0.0315,0.0305,0.0303,0.0274,0.0268,0.0259,0.0238,0.0241,0.0221,0.0202,0.0201,0.0243,0.0247,0.025,0.0269,0.0216,0,0,0,0,0,0.0352,0.0363,0.0352,0.0363,0.0361,0.0344,0.0341,0.0332,0.0319,0.0315,0.0296,0.0273,0.0254,0.0245,0.0226,0.0218,0.0188,0.0215,0.0218,0.0221,0.0232,0.0184,0.0185,0.0182,0.0182,0.0182,0,0,0.0362,0.036,0.0367,0.0367,0.036,0.0367,0.0342,0.0344,0.0349,0.031,0.0313,0.0287,0.0255,0.0246,0.024,0.023,0.0206,0.0221,0.0225,0.0234,0.0185,0.0185,0.0185,0.0182,0.0182,0.0182,0,0,0.0387,0.0387,0.0404,0.0403,0.0396,0.0386,0.0389,0.0376,0.0372,0.0368,0.0339,0.0318,0.0293,0.0271,0.0256,0.0265,0.0226,0.0256,0.029,0.0244,0.0244,0.0244,0.0207,0.0202,0.0258,0.0258,0.0258,0,0.0398,0.0421,0.0408,0.0422,0.0427,0.0399,0.0418,0.0408,0.0393,0.0393,0.0376,0.0334,0.0305,0.029,0.0293,0.0274,0.0245,0.028,0.0249,0.0248,0.0247,0.0209,0.0204,0.026,0.026,0.026,0.026,0,0.0434,0.0453,0.0463,0.0474,0.0475,0.0488,0.0473,0.0475,0.046,0.0445,0.043,0.0387,0.0362,0.0345,0.0323,0.0303,0.0284,0.026,0.0242,0.0251,0.021,0.0203,0.0264,0.0263,0.0262,0.0262,0,0,0.0459,0.0485,0.049,0.0511,0.0508,0.0517,0.0525,0.0527,0.0538,0.0505,0.0511,0.0464,0.0436,0.0416,0.0378,0.0339,0.03,0.0303,0.0299,0.0273,0.0203,0.0186,0.0176,0.0269,0.0268,0.0267,0.0179,0,0.0494,0.054,0.0539,0.0582,0.0606,0.0591,0.0605,0.06,0.0584,0.0581,0.0525,0.0513,0.0463,0.0454,0.0405,0.033,0.0285,0.0326,0.0193,0.019,0.0178,0.0169,0.0265,0.0174,0.0172,0.0171,0.017,0,0.053,0.0559,0.0612,0.065,0.0659,0.0679,0.0701,0.0712,0.0691,0.0678,0.0643,0.0597,0.0542,0.0495,0.0366,0.0394,0.0308,0.0242,0.0236,0.0199,0.016,0.0161,0.0158,0.0159,0.016,0.0161,0.0162,0,0.0563,0.0611,0.066,0.0673,0.0707,0.0732,0.0748,0.0745,0.0769,0.0742,0.0745,0.0661,0.0629,0.0509,0.0369,0.0366,0.0221,0.0194,0.0095,0.0093,0.0113,0.0114,0.0098,0.0099,0.0099,0.0099,0.0099,0,0.06,0.0641,0.0686,0.0715,0.0784,0.0784,0.0845,0.0846,0.0855,0.0884,0.0802,0.0795,0.0631,0.0527,0.039,0.0226,0.0229,0.0103,0.0068,0.0137,0.0142,0.0108,0.011,0.0096,0.0096,0.0097,0.0098,0,0.0628,0.0656,0.0723,0.0778,0.0805,0.0855,0.0924,0.0961,0.0957,0.099,0.0987,0.0895,0.0755,0.0581,0.0384,0.0262,0.0102,0.0041,0.0139,0.011,-0.0,0.0006,-0.0076,-0.0078,-0.0079,-0.008,-0.0081,0,0.0644,0.0684,0.0776,0.0827,0.0859,0.0935,0.099,0.1018,0.1057,0.105,0.1067,0.0951,0.0863,0.0583,0.0386,0.0117,0.0074,-0.0012,-0.0017,0.0008,-0.0019,-0.0011,-0.0004,-0.0083,-0.0083,-0.0083,-0.0084,0,0.0679,0.0717,0.0774,0.0882,0.0957,0.1046,0.1121,0.1157,0.1182,0.1177,0.1135,0.0983,0.0822,0.0592,0.0381,0.0186,0.0041,-0.0026,-0.0025,-0.003,-0.0001,-0.0025,-0.0016,-0.0088,-0.0087,-0.0087,-0.0086,0,0.0706,0.0756,0.0838,0.0931,0.1033,0.1127,0.1164,0.1205,0.1245,0.1222,0.1206,0.1025,0.0921,0.0628,0.0435,0.0238,0.0181,0.0111,0.0104,0.0106,0.0176,0.0241,0.0201,0,0,0,0,0,0.0726,0.0786,0.0877,0.0987,0.1087,0.1155,0.124,0.1263,0.1282,0.1264,0.1238,0.1085,0.0792,0.0669,0.0471,0.0395,0.0137,0.0153,0.0052,-0.011,-0.0106,-0.0057,0,0,0,0,0,0,0.0741,0.0829,0.0879,0.1016,0.1097,0.1221,0.1281,0.1294,0.1283,0.1263,0.1118,0.1031,0.0754,0.0914,0.0469,0.0407,0.0313,0.0016,0.0011,-0.0113,-0.0109,-0.0105,-0.0053,0,0,0,0,0]}]]